This is the latest recevied weather packets stored in our database for station/object KD9ZDW. If no packets are shown the sender has not sent any weather packets the latest 10 day(s).
| Time | Temp. | Humidity | Pressure | Rain* | Wind** | Luminosity | Snow |
|---|---|---|---|---|---|---|---|
| 1777821250 | 12.78° C | 46% | 1018.1 hPa | 0 mm | - | 234 W/m² | - |
| 1777820946 | 12.78° C | 47% | 1018.2 hPa | 0 mm | - | 315 W/m² | - |
| 1777820643 | 12.78° C | 47% | 1018.2 hPa | 0 mm | - | 378 W/m² | - |
| 1777820339 | 13.33° C | 49% | 1018.2 hPa | 0 mm | - | 224 W/m² | - |
| 1777820037 | 12.78° C | 47% | 1018 hPa | 0 mm | - | 291 W/m² | - |
| 1777819734 | 12.22° C | 49% | 1018 hPa | 0 mm | - | 284 W/m² | - |
| 1777819432 | 12.78° C | 48% | 1018.2 hPa | 0 mm | - | 169 W/m² | - |
| 1777819129 | 12.78° C | 47% | 1018.3 hPa | 0 mm | - | 224 W/m² | - |
| 1777818826 | 12.22° C | 50% | 1018.3 hPa | 0 mm | - | 207 W/m² | - |
| 1777818522 | 12.22° C | 48% | 1018 hPa | 0 mm | - | 146 W/m² | - |
| 1777818219 | 12.22° C | 48% | 1018.2 hPa | 0 mm | - | 291 W/m² | - |
| 1777817915 | 12.22° C | 48% | 1018.2 hPa | 0 mm | - | 156 W/m² | - |
| 1777817613 | 11.67° C | 51% | 1018.5 hPa | 0 mm | - | 158 W/m² | - |
| 1777817309 | 11.67° C | 50% | 1018.7 hPa | 0 mm | - | 221 W/m² | - |
| 1777817007 | 11.67° C | 50% | 1018.6 hPa | 0 mm | - | 195 W/m² | - |
| 1777816702 | 11.11° C | 51% | 1018.8 hPa | 0 mm | - | 122 W/m² | - |
| 1777816400 | 11.11° C | 50% | 1018.5 hPa | 0 mm | - | 195 W/m² | - |
| 1777816098 | 10.56° C | 51% | 1018.8 hPa | 0 mm | - | 121 W/m² | - |
| 1777815795 | 10.56° C | 51% | 1018.9 hPa | 0 mm | - | 270 W/m² | - |
| 1777815493 | 10.56° C | 51% | 1018.8 hPa | 0 mm | - | 198 W/m² | - |
| 1777815190 | 10.56° C | 52% | 1018.5 hPa | 0 mm | - | 157 W/m² | - |
| 1777814886 | 10° C | 54% | 1018.5 hPa | 0 mm | - | 320 W/m² | - |
| 1777814582 | 10° C | 53% | 1018.5 hPa | 0 mm | - | 308 W/m² | - |
| 1777814280 | 9.44° C | 54% | 1018.6 hPa | 0 mm | - | 255 W/m² | - |
| 1777813976 | 9.44° C | 54% | 1018.8 hPa | 0 mm | - | 250 W/m² | - |
* Rain latest hour (hover to see other rain measurements)
** Current wind speed in m/s (hover to see current wind gust speed)